| time (UTC) | temp F | wind direction | speed MPH | gust MPH | rain 1hr in | rain 24hr in | rain mn in | humidity % | barometer mb |
| 20260503150901 | 45 | 302 | 18.0 | 29.0 | 0.00 | 0.04 | 0.00 | 68 | 1007.0 |
| 20260503150412 | 45 | 301 | 17.0 | 27.0 | 0.00 | 0.04 | 0.00 | 68 | 1006.9 |
| 20260503131410 | 44 | 307 | 13.0 | 22.0 | 0.00 | 0.04 | 0.00 | 72 | 1006.8 |
| 20260503130901 | 44 | 304 | 9.0 | 17.0 | 0.00 | 0.04 | 0.00 | 72 | 1006.9 |
| 20260503130432 | 44 | 308 | 13.0 | 23.0 | 0.00 | 0.04 | 0.00 | 72 | 1006.9 |
| 20260503110409 | 41 | 292 | 9.0 | 14.0 | 0.00 | 0.04 | 0.04 | 74 | 1007.8 |
| 20260503090414 | 42 | 292 | 8.0 | 12.0 | 0.00 | 0.04 | 0.04 | 70 | 1007.9 |
| 20260503081435 | 43 | 286 | 7.0 | 12.0 | 0.00 | 0.04 | 0.04 | 66 | 1008.2 |
| 20260503080929 | 43 | 308 | 8.0 | 12.0 | 0.00 | 0.04 | 0.04 | 66 | 1008.2 |
| 20260503080359 | 43 | 294 | 8.0 | 12.0 | 0.00 | 0.04 | 0.04 | 66 | 1008.4 |
| 20260503072923 | 44 | 304 | 7.0 | 10.0 | 0.00 | 0.04 | 0.04 | 64 | 1008.7 |
| 20260503072414 | 44 | 304 | 7.0 | 9.0 | 0.00 | 0.04 | 0.04 | 64 | 1008.9 |
| 20260503071910 | 44 | 304 | 6.0 | 10.0 | 0.00 | 0.04 | 0.04 | 63 | 1008.9 |
| 20260503071401 | 44 | 299 | 6.0 | 10.0 | 0.00 | 0.04 | 0.04 | 62 | 1009.1 |
| 20260503070914 | 44 | 308 | 7.0 | 10.0 | 0.00 | 0.04 | 0.04 | 62 | 1008.9 |
| 20260503070405 | 44 | 305 | 7.0 | 11.0 | 0.00 | 0.04 | 0.04 | 62 | 1009.1 |
| 20260503054911 | 45 | 297 | 8.0 | 13.0 | 0.00 | 0.04 | 0.04 | 60 | 1010.1 |
| 20260503054402 | 45 | 292 | 8.0 | 13.0 | 0.00 | 0.04 | 0.04 | 60 | 1010.2 |
| 20260503053935 | 45 | 298 | 9.0 | 12.0 | 0.00 | 0.04 | 0.04 | 61 | 1010.4 |
| 20260503053406 | 45 | 281 | 8.0 | 12.0 | 0.00 | 0.04 | 0.04 | 62 | 1010.4 |
| 20260503052858 | 45 | 284 | 9.0 | 12.0 | 0.00 | 0.04 | 0.04 | 62 | 1010.3 |
| 20260503052410 | 45 | 287 | 7.0 | 12.0 | 0.00 | 0.04 | 0.04 | 63 | 1010.5 |
| 20260503051902 | 46 | 291 | 9.0 | 12.0 | 0.00 | 0.04 | 0.04 | 63 | 1010.4 |
| 20260503051434 | 46 | 304 | 8.0 | 12.0 | 0.00 | 0.04 | 0.04 | 63 | 1010.3 |
| 20260503050909 | 46 | 289 | 8.0 | 12.0 | 0.00 | 0.04 | 0.04 | 64 | 1010.5 |
| 20260503050400 | 46 | 292 | 9.0 | 13.0 | 0.00 | 0.04 | 0.04 | 64 | 1010.3 |
| 20260503045912 | 46 | 285 | 7.0 | 13.0 | 0.00 | 0.04 | 0.04 | 65 | 1010.5 |
| 20260503045424 | 46 | 300 | 8.0 | 11.0 | 0.00 | 0.04 | 0.04 | 68 | 1010.7 |
| 20260503044916 | 46 | 289 | 8.0 | 11.0 | 0.00 | 0.04 | 0.04 | 70 | 1010.8 |
| 20260503044428 | 46 | 273 | 7.0 | 13.0 | 0.00 | 0.04 | 0.04 | 72 | 1010.9 |
| 20260503043939 | 46 | 299 | 7.0 | 12.0 | 0.00 | 0.04 | 0.04 | 75 | 1010.9 |
| 20260503043430 | 46 | 288 | 7.0 | 11.0 | 0.00 | 0.04 | 0.04 | 78 | 1010.8 |
| 20260503042922 | 46 | 290 | 7.0 | 12.0 | 0.00 | 0.04 | 0.04 | 81 | 1010.9 |
| 20260503042417 | 46 | 302 | 7.0 | 12.0 | 0.00 | 0.04 | 0.04 | 85 | 1011.0 |
| 20260503041950 | 46 | 311 | 7.0 | 9.0 | 0.00 | 0.04 | 0.04 | 88 | 1011.1 |
| 20260503041421 | 46 | 298 | 6.0 | 9.0 | 0.00 | 0.04 | 0.04 | 91 | 1011.2 |
| 20260503040913 | 46 | 311 | 7.0 | 9.0 | 0.00 | 0.04 | 0.04 | 92 | 1011.3 |
| 20260503040425 | 46 | 305 | 6.0 | 10.0 | 0.00 | 0.04 | 0.04 | 93 | 1011.4 |
| 20260503035917 | 47 | 304 | 6.0 | 10.0 | 0.00 | 0.04 | 0.04 | 93 | 1011.3 |
| 20260503035429 | 46 | 302 | 6.0 | 10.0 | 0.00 | 0.04 | 0.04 | 93 | 1011.4 |
| 20260503034920 | 47 | 299 | 6.0 | 10.0 | 0.00 | 0.04 | 0.04 | 93 | 1011.3 |
| 20260503034452 | 47 | 297 | 7.0 | 9.0 | 0.00 | 0.04 | 0.04 | 93 | 1011.1 |
| 20260503033927 | 47 | 302 | 6.0 | 9.0 | 0.00 | 0.04 | 0.04 | 92 | 1011.1 |
| 20260503033440 | 47 | 311 | 6.0 | 9.0 | 0.00 | 0.04 | 0.04 | 92 | 1011.1 |
| 20260503032931 | 47 | 304 | 6.0 | 8.0 | 0.00 | 0.04 | 0.04 | 91 | 1011.1 |
| 20260503032423 | 47 | 297 | 5.0 | 8.0 | 0.00 | 0.04 | 0.04 | 91 | 1011.0 |
| 20260503031914 | 47 | 296 | 5.0 | 8.0 | 0.00 | 0.04 | 0.04 | 90 | 1011.1 |
| 20260503031426 | 47 | 289 | 5.0 | 10.0 | 0.00 | 0.04 | 0.04 | 90 | 1011.0 |
| 20260503030918 | 47 | 267 | 6.0 | 10.0 | 0.00 | 0.04 | 0.04 | 90 | 1011.0 |
| 20260503030430 | 47 | 287 | 5.0 | 8.0 | 0.00 | 0.04 | 0.04 | 90 | 1011.2 |
| 20260503025921 | 47 | 287 | 5.0 | 10.0 | 0.00 | 0.04 | 0.04 | 91 | 1011.1 |
| 20260503025418 | 47 | 275 | 5.0 | 10.0 | 0.00 | 0.04 | 0.04 | 92 | 1011.2 |
| 20260503024930 | 47 | 264 | 3.0 | 9.0 | 0.00 | 0.04 | 0.04 | 92 | 1011.1 |
| 20260503024421 | 47 | 249 | 6.0 | 9.0 | 0.00 | 0.04 | 0.04 | 92 | 1011.2 |
| 20260503023913 | 47 | 257 | 4.0 | 10.0 | 0.00 | 0.04 | 0.04 | 91 | 1011.2 |
| 20260503023425 | 47 | 259 | 6.0 | 10.0 | 0.00 | 0.04 | 0.04 | 91 | 1011.2 |
| 20260503022916 | 47 | 248 | 4.0 | 7.0 | 0.00 | 0.04 | 0.04 | 91 | 1011.2 |
| 20260503022449 | 47 | 273 | 4.0 | 6.0 | 0.00 | 0.04 | 0.04 | 91 | 1011.2 |
| 20260503021919 | 47 | 259 | 2.0 | 4.0 | 0.00 | 0.04 | 0.04 | 91 | 1011.2 |
| 20260503021415 | 47 | 299 | 0.0 | 0.0 | 0.00 | 0.04 | 0.04 | 91 | 1011.2 |
| 20260503020948 | 47 | 311 | 0.0 | 0.0 | 0.00 | 0.04 | 0.04 | 91 | 1011.3 |
| 20260503020419 | 48 | 312 | 0.0 | 0.0 | 0.00 | 0.04 | 0.04 | 91 | 1011.2 |
| 20260503015931 | 48 | 312 | 0.0 | 2.0 | 0.00 | 0.04 | 0.04 | 91 | 1011.4 |
| 20260503015444 | 48 | 311 | 1.0 | 2.0 | 0.00 | 0.04 | 0.04 | 91 | 1011.5 |
| 20260503014914 | 48 | 311 | 1.0 | 3.0 | 0.00 | 0.04 | 0.04 | 91 | 1011.6 |
| 20260503014426 | 48 | 252 | 2.0 | 3.0 | 0.00 | 0.04 | 0.04 | 90 | 1011.7 |
| 20260503013918 | 48 | 228 | 0.0 | 3.0 | 0.00 | 0.04 | 0.04 | 90 | 1011.7 |
| 20260503013430 | 48 | 303 | 0.0 | 2.0 | 0.00 | 0.04 | 0.04 | 90 | 1011.8 |
| 20260503012943 | 48 | 34 | 2.0 | 3.0 | 0.00 | 0.04 | 0.04 | 90 | 1011.6 |
| 20260503012435 | 48 | 64 | 2.0 | 4.0 | 0.00 | 0.04 | 0.04 | 89 | 1011.6 |
| 20260503011930 | 48 | 198 | 2.0 | 5.0 | 0.00 | 0.04 | 0.04 | 89 | 1011.6 |
| 20260503011422 | 48 | 180 | 3.0 | 5.0 | 0.00 | 0.04 | 0.04 | 89 | 1011.4 |